This is the latest recevied weather packets stored in our database for station/object NK7E. If no packets are shown the sender has not sent any weather packets the latest 1 day(s).
| Time | Temp. | Humidity | Pressure | Rain* | Wind** | Luminosity | Snow |
|---|---|---|---|---|---|---|---|
| 1778043016 | 17.22° C | 44% | 1013.4 hPa | 0 mm | - | 0 W/m² | - |
| 1778042416 | 17.22° C | 45% | 1013.3 hPa | 0 mm | - | 0 W/m² | - |
| 1778041816 | 17.78° C | 48% | 1013.3 hPa | 0 mm | - | 0 W/m² | - |
| 1778041216 | 17.78° C | 48% | 1013.2 hPa | 0 mm | - | 0 W/m² | - |
| 1778040616 | 17.78° C | 48% | 1013.1 hPa | 0 mm | - | 0 W/m² | - |
| 1778040016 | 17.78° C | 47% | 1012.8 hPa | 0 mm | - | 0 W/m² | - |
| 1778039416 | 17.78° C | 45% | 1012.8 hPa | 0 mm | - | 0 W/m² | - |
| 1778038816 | 18.33° C | 43% | 1012.5 hPa | 0 mm | - | 0 W/m² | - |
| 1778038216 | 18.33° C | 42% | 1012.3 hPa | 0 mm | - | 0 W/m² | - |
| 1778037616 | 18.33° C | 41% | 1012.3 hPa | 0 mm | - | 0 W/m² | - |
| 1778037016 | 18.89° C | 40% | 1011.9 hPa | 0 mm | - | 0 W/m² | - |
| 1778036416 | 18.89° C | 39% | 1011.9 hPa | 0 mm | - | 0 W/m² | - |
| 1778035816 | 18.89° C | 39% | 1011.8 hPa | 0 mm | - | 0 W/m² | - |
| 1778035216 | 18.89° C | 38% | 1011.6 hPa | 0 mm | - | 0 W/m² | - |
| 1778034616 | 19.44° C | 36% | 1011.5 hPa | 0 mm | - | 0 W/m² | - |
| 1778034016 | 19.44° C | 35% | 1011.2 hPa | 0 mm | - | 0 W/m² | - |
| 1778033416 | 19.44° C | 33% | 1011.1 hPa | 0 mm | - | 3 W/m² | - |
| 1778032816 | 20° C | 32% | 1010.9 hPa | 0 mm | - | 10 W/m² | - |
| 1778032216 | 20.56° C | 33% | 1010.9 hPa | 0 mm | - | 19 W/m² | - |
| 1778031616 | 20.56° C | 34% | 1010.8 hPa | 0 mm | - | 56 W/m² | - |
| 1778031016 | 21.11° C | 34% | 1010.7 hPa | 0 mm | - | 89 W/m² | - |
| 1778030416 | 21.11° C | 34% | 1010.6 hPa | 0 mm | - | 116 W/m² | - |
| 1778029816 | 21.11° C | 34% | 1010.6 hPa | 0 mm | - | 138 W/m² | - |
| 1778029216 | 21.67° C | 33% | 1010.4 hPa | 0 mm | - | 167 W/m² | - |
| 1778028616 | 22.22° C | 31% | 1010.3 hPa | 0 mm | - | 160 W/m² | - |
* Rain latest hour (hover to see other rain measurements)
** Current wind speed in m/s (hover to see current wind gust speed)